Change the Weather History Date:

Wednesday, April 30, 2014

  Actual Average Record
Temperature  
Mean Temperature 52 °F -  
Max Temperature 57 °F 74 °F 91 °F (2007)
Min Temperature 46 °F 57 °F 37 °F (2005)
Degree Days  
Heating Degree Days 14    
Growing Degree Days 2 (Base 50)    
Moisture  
Dew Point 41 °F    
Average Humidity 71    
Maximum Humidity 97    
Minimum Humidity 45    
Precipitation  
Precipitation 0.01 in - - ()
Sea Level Pressure  
Sea Level Pressure 29.85 in    
Wind  
Wind Speed 9 mph (West)    
Max Wind Speed 16 mph    
Max Gust Speed 23 mph    
Visibility 9 miles    
Events Rain    
Averages and records for this station are not official NWS values.
T = Trace of Precipitation, MM = Missing Value Source: NWS Daily Summary

Daily Weather History Graph

Daily Weather History Graph

Search for Another Location

Airport or City:

Trip Planner

Search our weather history database for the weather conditions in past years. The results will help you decide how hot, cold, wet, or windy it might be!

Date:

Astronomy

Apr. 30, 2014 Rise Set
Actual Time 6:04 AM CDT 7:51 PM CDT
Civil Twilight 5:36 AM CDT 8:20 PM CDT
Nautical Twilight 5:01 AM CDT 8:54 PM CDT
Astronomical Twilight 4:24 AM CDT 9:31 PM CDT
Moon 7:06 AM CDT (4/30) 9:30 PM CDT (4/30)
Length of Visible Light 14h 44m
Length of Day
13h 47m
New Moon, 2% of the Moon is Illuminated
Apr 30
New Moon
May 6
First Quarter
May 14
Full
May 21
Last Quarter
May 28
New

Hourly Weather History & Observations

Time (CDT) Temp. Dew Point Humidity Pressure Visibility Wind Dir Wind Speed Gust Speed Precip Events Conditions
12:53 AM 52.0 °F 43.0 °F 71% 29.75 in 10.0 mi SW 6.9 mph - N/A   Overcast
1:24 AM 52.0 °F 43.0 °F 71% 29.75 in 10.0 mi SW 5.8 mph - N/A   Overcast
1:53 AM 52.0 °F 43.0 °F 71% 29.74 in 10.0 mi West 6.9 mph - N/A   Overcast
2:53 AM 51.1 °F 45.0 °F 80% 29.75 in 10.0 mi WSW 9.2 mph - N/A   Overcast
3:53 AM 51.1 °F 45.0 °F 80% 29.76 in 10.0 mi West 5.8 mph - N/A   Overcast
4:53 AM 50.0 °F 45.0 °F 83% 29.78 in 10.0 mi West 6.9 mph - N/A   Overcast
5:21 AM 48.9 °F 46.9 °F 93% 29.79 in 3.0 mi WNW 13.8 mph 19.6 mph 0.01 in Rain Light Rain
5:30 AM 48.0 °F 46.0 °F 93% 29.79 in 5.0 mi WNW 10.4 mph - 0.01 in Rain Light Rain
5:43 AM 48.0 °F 46.0 °F 93% 29.80 in 8.0 mi WNW 9.2 mph - 0.01 in   Overcast
5:53 AM 46.9 °F 46.0 °F 97% 29.81 in 5.0 mi WNW 10.4 mph - 0.01 in Rain Light Rain
6:04 AM 48.0 °F 45.0 °F 89% 29.81 in 10.0 mi WNW 10.4 mph - 0.00 in   Overcast
6:13 AM 48.0 °F 44.1 °F 86% 29.81 in 10.0 mi WNW 11.5 mph - 0.00 in   Overcast
6:53 AM 48.0 °F 44.1 °F 86% 29.82 in 10.0 mi West 8.1 mph - 0.00 in   Overcast
7:53 AM 48.0 °F 41.0 °F 77% 29.83 in 10.0 mi WNW 11.5 mph - N/A   Overcast
8:53 AM 48.0 °F 39.0 °F 71% 29.84 in 10.0 mi WNW 15.0 mph 23.0 mph N/A   Overcast
9:03 AM 48.0 °F 39.0 °F 71% 29.84 in 10.0 mi WNW 16.1 mph 23.0 mph N/A   Overcast
9:15 AM 48.0 °F 39.9 °F 74% 29.84 in 10.0 mi WNW 13.8 mph - N/A   Overcast
10:53 AM 48.0 °F 37.0 °F 66% 29.88 in 10.0 mi West 13.8 mph - N/A   Overcast
11:53 AM 50.0 °F 37.0 °F 61% 29.89 in 10.0 mi West 10.4 mph - N/A   Overcast
12:53 PM 50.0 °F 37.0 °F 61% 29.90 in 10.0 mi West 10.4 mph - N/A   Overcast
1:53 PM 51.1 °F 37.0 °F 59% 29.91 in 10.0 mi WSW 9.2 mph 17.3 mph N/A   Overcast
2:53 PM 52.0 °F 37.0 °F 57% 29.91 in 10.0 mi WSW 11.5 mph 18.4 mph N/A   Overcast
3:53 PM 53.1 °F 37.0 °F 55% 29.90 in 10.0 mi West 9.2 mph - N/A   Overcast
4:53 PM 55.9 °F 37.0 °F 49% 29.88 in 10.0 mi West 10.4 mph - N/A   Scattered Clouds
5:53 PM 57.0 °F 36.0 °F 45% 29.88 in 10.0 mi West 9.2 mph - N/A   Mostly Cloudy
6:53 PM 55.0 °F 36.0 °F 49% 29.89 in 10.0 mi West 12.7 mph - N/A   Overcast
7:53 PM 53.1 °F 37.9 °F 57% 29.91 in 10.0 mi West 13.8 mph 19.6 mph N/A   Overcast
8:53 PM 52.0 °F 39.0 °F 61% 29.93 in 10.0 mi WSW 8.1 mph - 0.00 in   Overcast
9:53 PM 51.1 °F 37.9 °F 61% 29.94 in 10.0 mi WSW 9.2 mph - N/A   Overcast
10:53 PM 50.0 °F 37.9 °F 63% 29.94 in 10.0 mi SW 5.8 mph - N/A   Clear
11:53 PM 48.0 °F 37.9 °F 68% 29.93 in 10.0 mi SW 6.9 mph - N/A   Clear